Tracking 32136 objects as of 12-Nov-2025
HD Live streaming from Space Station
objects crossing your sky now

STARLINK-30380

Track STARLINK-30380 now!
10-day predictions
STARLINK-30380 is classified as:


NORAD ID: 57780
Int'l Code: 2023-134K
Perigee: 565.4 km
Apogee: 567.1 km
Inclination: 43.0 °
Period: 95.8 minutes
Semi major axis: 6937 km
RCS: Unknown
Launch date: September 4, 2023
Source: United States (US)
Launch site: AIR FORCE EASTERN TEST RANGE (AFETR)
Your satellite tracking list
Your tracking list is empty




NASA's NSSDC Master Catalog

Two Line Element Set (TLE):
1 57780U 23134K   25314.89226134  .00000871  00000-0  79569-4 0  9996
2 57780  43.0023 122.7865 0001216 262.1992  97.8713 15.02533477121605
Source of the keplerian elements: AFSPC